Hourly Data Report for September 29, 2017

All times are specified in Local Standard Time (LST). Add 1 hour to adjust for Daylight Saving Time where and when it is observed.

SATURNA ISLAND CS
BRITISH COLUMBIA

48°47'02.067" N
123°02'41.082" W
24.40 m
1017101
71473
WEZ

Download Data

Hourly Data (September 2017)
Hourly Data Report for September 29, 2017
Temp Definition
°C
Dew Point Temp Definition
°C
Rel Hum Definition
%
Wind Dir Definition
10's deg

Wind Spd Definition
km/h
Visibility Definition
km
Stn Press Definition
kPa
Hmdx Definition


Wind Chill Definition


Weather Definition


TIME
00:00 14.2 10.2 77 23 23   100.68     LegendNANA
01:00 14.3 10.5 78 22 19   100.68     LegendNANA
02:00 14.1 10.6 80 21 17   100.69     LegendNANA
03:00 14.1 11.4 83 17 7   100.72     LegendNANA
04:00 15.3 11.8 80 19 13   100.73     LegendNANA
05:00 14.4 11.4 82 20 37   100.78     LegendNANA
06:00 13.4 11.4 88 17 13   100.81     LegendNANA
07:00 13.4 11.9 91 18 14   100.89     LegendNANA
08:00 13.8 12.5 92 18 26   100.93     LegendNANA
09:00 14.2 12.7 91 18 12   100.94     LegendNANA
10:00 14.9 13.0 89 16 19   100.93     LegendNANA
11:00 14.4 12.7 89 16 23   100.96     LegendNANA
12:00 14.6 13.0 90 22 16   101.01     LegendNANA
13:00 14.9 13.2 90 15 16   100.93     LegendNANA
14:00 17.3 14.4 83 22 12   100.96     LegendNANA
15:00 15.5 12.6 83 18 26   100.92     LegendNANA
16:00 14.8 11.3 79 21 18   100.97     LegendNANA
17:00 14.3 8.8 69 19 21   101.06     LegendNANA
18:00 14.5 7.1 61 24 15   101.13     LegendNANA
19:00 13.3 8.2 71 23 13   101.20     LegendNANA
20:00 12.8 8.6 76 23 18   101.26     LegendNANA
21:00 12.7 9.1 79 22 14   101.33     LegendNANA
22:00 12.6 9.5 81 23 18   101.37     LegendNANA
23:00 12.0 9.3 83 22 11   101.39     LegendNANA

Notes on Data Quality.

Legend

  • E = Estimated
  • M = Missing
  • NA = Not Available
  • ‡ = Partner data that is not subject to review by the National Climate Archives
Date modified: